Date,TemperatureHighF,TemperatureAvgF,TemperatureLowF,DewpointHighF,DewpointAvgF,DewpointLowF,HumidityHigh,HumidityAvg,HumidityLow,PressureMaxIn,PressureMinIn,WindSpeedMaxMPH,WindSpeedAvgMPH,GustSpeedMaxMPH,PrecipitationSumIn
2013-1-1,36,32,28,27,21,14,78,66,45,30.35,30.27,5,1,8,0.00
2013-1-2,39,29,24,26,17,10,78,62,32,30.27,30.12,4,1,7,0.00
2013-1-3,40,32,22,23,17,11,77,56,32,30.21,30.09,4,0,6,0.00
2013-1-4,55,42,34,36,25,21,74,54,27,30.27,30.12,5,0,6,0.00
2013-1-5,42,37,33,34,30,26,79,77,74,30.15,30.09,5,0,7,0.00
2013-1-6,51,42,36,41,29,19,79,62,30,30.18,30.09,6,0,9,0.08
2013-1-7,52,47,42,43,38,34,79,72,52,30.18,30.03,4,0,6,0.55
2013-1-8,54,48,42,43,33,26,79,57,35,30.18,29.88,8,1,11,0.12
2013-1-9,49,40,34,40,28,19,79,64,38,29.94,29.73,10,1,13,0.36
2013-1-10,40,36,32,30,26,17,79,68,42,30.06,29.94,5,0,7,0.19
2013-1-11,39,33,28,32,22,14,79,66,39,30.24,30.06,5,0,8,0.04
2013-1-12,38,29,23,25,17,9,76,64,31,30.32,30.21,6,1,8,0.00
2013-1-13,32,28,25,22,13,8,76,53,38,30.41,30.32,5,1,7,0.00
2013-1-14,41,32,26,18,13,8,56,45,28,30.47,30.38,5,0,8,0.00
2013-1-15,39,33,27,26,20,14,75,59,39,30.56,30.47,7,1,9,0.00
2013-1-16,34,33,32,28,27,24,79,76,68,30.56,30.41,4,0,5,0.00
2013-1-17,34,32,30,28,26,24,79,78,76,30.41,30.24,4,0,5,0.00
2013-1-18,36,31,27,29,24,21,79,77,63,30.27,30.18,4,0,6,0.00
2013-1-19,34,30,27,28,24,21,78,78,77,30.27,30.21,4,0,5,0.00
2013-1-20,32,30,28,26,23,21,78,77,77,30.27,30.18,4,0,5,0.00
2013-1-21,33,29,25,28,23,19,79,78,77,30.21,30.09,5,0,6,0.00
2013-1-22,35,30,24,28,23,19,79,77,58,30.09,29.88,4,1,6,0.00
2013-1-23,39,35,31,32,27,19,79,74,51,30.12,29.82,5,0,6,0.28
2013-1-24,47,39,32,39,30,24,79,73,45,30.15,30.03,5,0,7,0.19
2013-1-25,51,46,38,45,39,32,79,78,77,30.09,29.91,2,0,4,0.36
2013-1-26,46,40,37,36,29,18,79,65,35,30.06,29.94,6,1,9,0.20
2013-1-27,43,38,35,36,29,19,79,69,39,30.12,30.03,5,0,7,0.47
2013-1-28,42,40,36,37,33,29,79,77,72,30.21,30.06,3,0,4,0.67
2013-1-29,46,43,41,39,37,34,79,78,74,30.44,30.21,3,0,4,0.75
2013-1-30,47,44,41,41,37,34,79,78,76,30.47,30.38,4,0,4,0.19
2013-1-31,52,45,40,39,32,22,78,64,32,30.38,30.27,4,0,5,0.04
2013-2-1,50,40,33,34,28,21,79,63,33,30.30,30.15,6,1,8,0.00
2013-2-2,50,38,29,37,26,22,79,64,35,30.27,30.18,4,0,5,0.00
2013-2-3,49,42,35,34,27,20,79,59,33,30.27,30.15,4,0,5,0.00
2013-2-4,53,45,40,36,27,18,73,53,27,30.15,29.88,4,0,6,0.00
2013-2-5,53,45,42,43,31,22,78,59,31,30.03,29.88,8,1,8,0.32
2013-2-6,53,46,41,37,25,18,75,46,26,30.06,29.79,7,1,8,0.12
2013-2-7,49,40,34,34,24,15,75,56,28,30.03,29.91,5,0,7,0.15
2013-2-8,42,36,34,29,21,14,77,57,33,30.21,30.03,4,0,8,0.00
2013-2-9,46,40,34,32,24,15,72,55,31,30.21,30.18,4,0,4,0.00
2013-2-10,45,42,39,32,24,17,76,53,35,30.24,30.21,6,0,8,0.00
2013-2-11,48,43,39,34,23,15,71,46,28,30.32,30.21,4,0,5,0.00
2013-2-12,53,47,42,39,32,22,78,59,31,30.41,30.32,4,0,5,0.08
2013-2-13,51,47,44,41,32,25,76,58,37,30.41,30.35,4,0,6,0.00
2013-2-14,57,46,37,37,28,21,78,53,26,30.44,30.35,7,1,9,0.00
2013-2-15,50,39,34,36,28,23,79,67,39,30.35,30.15,4,1,6,0.00
2013-2-16,49,40,32,41,30,24,79,68,39,30.21,30.15,4,0,5,0.04
2013-2-17,49,40,33,34,22,12,78,53,27,30.21,30.00,6,0,7,0.00
2013-2-18,47,38,30,28,18,13,75,47,27,30.00,29.68,6,0,6,0.00
2013-2-19,47,41,37,32,23,17,75,51,30,29.91,29.59,6,0,8,0.04
2013-2-20,48,41,35,34,24,14,73,55,27,30.03,29.91,7,1,9,0.35
2013-2-21,44,39,36,36,27,19,78,63,38,30.15,30.03,6,0,8,0.20
2013-2-22,45,41,35,36,28,20,78,61,37,30.15,29.88,6,1,10,0.39
2013-2-23,45,38,32,32,24,15,76,61,31,30.35,30.03,7,1,8,0.16
2013-2-24,51,40,32,32,22,15,79,53,26,30.35,30.06,6,1,9,0.00
2013-2-25,48,42,35,34,20,12,73,43,24,30.30,30.03,9,2,13,0.08
2013-2-26,51,40,30,30,20,13,75,47,24,30.30,30.15,5,1,8,0.00
2013-2-27,50,44,36,32,23,18,57,43,29,30.24,30.15,6,1,8,0.04
2013-2-28,56,49,45,46,37,28,79,64,39,30.38,30.15,6,1,10,0.43
2013-3-1,63,52,43,46,34,25,79,57,24,30.38,30.24,5,0,6,0.00
2013-3-2,54,48,42,37,29,24,73,48,37,30.24,30.09,7,0,10,0.08
2013-3-3,50,40,30,34,20,11,77,47,21,30.21,30.12,8,1,10,0.00
2013-3-4,56,39,26,24,18,13,72,46,22,30.12,29.82,5,1,6,0.00
2013-3-5,50,42,33,36,28,20,77,61,34,29.82,29.53,4,0,6,0.16
2013-3-6,47,42,37,37,29,20,79,62,38,29.91,29.47,5,0,8,0.51
2013-3-7,55,42,31,36,23,12,78,53,20,29.94,29.85,8,1,13,0.12
2013-3-8,52,40,32,32,24,19,78,55,28,30.12,29.91,4,0,9,0.00
2013-3-9,56,42,30,33,22,17,76,51,25,30.32,30.12,6,2,8,0.00
2013-3-10,59,46,31,32,22,15,74,42,19,30.38,30.30,5,1,8,0.00
2013-3-11,60,52,47,41,32,26,73,49,28,30.32,30.15,4,0,5,0.00
2013-3-12,60,50,39,41,30,23,77,51,25,30.15,30.06,5,1,8,0.00
2013-3-13,66,54,44,39,31,25,73,45,22,30.15,29.97,7,0,8,0.00
2013-3-14,50,46,45,37,36,32,73,68,53,30.03,29.97,0,0,0,0.00
2013-3-15,64,55,45,46,32,23,76,46,24,30.12,29.97,6,1,8,0.00
2013-3-16,51,47,41,37,28,19,68,48,30,30.09,29.94,6,1,8,0.28
2013-3-17,48,41,34,36,20,12,78,47,24,30.21,30.06,6,1,8,0.08
2013-3-18,55,43,32,32,19,11,78,42,20,30.18,30.00,8,1,9,0.00
2013-3-19,53,44,34,43,27,16,78,53,27,30.00,29.59,4,0,5,0.40
2013-3-20,53,46,36,45,30,19,79,54,36,30.09,29.50,9,2,16,0.71
2013-3-21,46,39,34,34,23,13,79,55,30,30.21,30.09,10,1,14,0.11
2013-3-22,46,39,33,32,18,11,73,45,25,30.27,30.18,5,1,8,0.04
2013-3-23,49,40,32,30,20,11,77,48,24,30.27,30.12,6,1,9,0.00
2013-3-24,56,41,32,29,19,0,73,45,25,30.12,29.97,6,1,8,0.00
2013-3-25,56,50,36,32,23,19,73,36,25,29.94,29.82,6,1,9,0.00
2013-3-26,54,48,41,39,30,22,75,52,29,29.94,29.88,4,0,4,0.04
2013-3-27,62,49,38,41,30,23,77,53,24,29.91,29.82,6,1,8,0.08
2013-3-28,64,55,47,43,31,23,78,45,23,30.06,29.94,8,1,10,0.00
2013-3-29,67,56,48,45,32,25,76,44,23,30.12,30.03,6,1,9,0.00
2013-3-30,72,56,40,39,31,26,76,43,19,30.09,29.88,7,1,9,0.00
2013-3-31,72,58,43,43,30,23,76,40,16,29.97,29.85,7,2,10,0.00
2013-4-1,60,55,52,41,32,27,62,41,29,30.12,29.94,4,0,6,0.00
2013-4-2,67,54,44,41,29,22,73,42,20,30.15,30.06,6,1,9,0.00
2013-4-3,65,53,40,41,30,24,75,45,25,30.09,29.85,5,1,8,0.00
2013-4-4,62,55,51,46,36,28,73,49,31,29.85,29.65,9,1,12,0.08
2013-4-5,58,53,50,43,33,24,75,47,27,29.94,29.82,9,1,12,0.43
2013-4-6,55,50,47,43,32,22,75,53,28,29.97,29.70,6,1,9,0.55
2013-4-7,53,47,41,41,25,18,74,44,29,29.94,29.62,13,3,19,0.28
2013-4-8,52,46,39,36,27,18,76,51,28,30.21,29.94,5,0,8,0.04
2013-4-9,60,49,36,36,24,15,75,41,19,30.27,30.18,4,0,6,0.00
2013-4-10,61,51,42,39,28,16,74,45,25,30.27,30.15,8,2,12,0.00
2013-4-11,57,47,38,24,19,13,50,34,20,30.30,30.09,7,1,10,0.00
2013-4-12,58,46,32,36,22,13,73,42,20,30.09,29.82,7,1,10,0.04
2013-4-13,52,44,39,37,19,14,69,37,24,30.06,29.88,9,2,12,0.07
2013-4-14,49,43,40,28,20,16,60,41,27,30.06,29.88,7,1,10,0.12
2013-4-15,43,40,38,34,30,24,75,67,48,30.12,29.88,3,0,4,0.55
2013-4-16,59,46,39,36,25,12,77,49,17,30.32,30.12,9,1,13,0.04
2013-4-17,61,46,32,32,21,12,74,40,17,30.41,30.30,7,1,9,0.04
2013-4-18,64,52,40,30,24,16,55,35,19,30.41,30.27,6,1,8,0.00
2013-4-19,57,51,48,43,34,26,73,52,35,30.27,30.18,6,1,10,0.40
2013-4-20,62,52,44,41,29,19,74,45,21,30.30,30.18,7,1,9,0.07
2013-4-21,58,50,43,41,28,21,73,44,26,30.24,30.15,5,1,7,0.00
2013-4-22,70,52,42,36,22,11,73,34,15,30.30,30.18,8,2,13,0.00
2013-4-23,68,51,32,19,15,10,45,26,15,30.27,30.06,9,2,14,0.00
2013-4-24,75,55,34,23,18,11,52,27,13,30.15,29.91,10,2,12,0.00
2013-4-25,76,56,38,34,22,18,63,30,13,30.09,29.94,6,1,9,0.00
2013-4-26,78,60,42,39,26,20,70,32,15,30.18,30.09,7,1,10,0.00
2013-4-27,75,58,42,30,22,12,55,28,13,30.21,30.12,7,1,10,0.00
2013-4-28,67,56,47,32,24,16,49,30,15,30.24,30.06,5,1,8,0.00
2013-4-29,59,53,43,36,20,7,59,30,17,30.15,30.06,7,2,10,0.04
2013-4-30,57,45,33,21,14,9,53,30,17,30.32,30.15,8,1,11,0.00
2013-5-1,68,49,30,26,18,14,67,33,15,30.41,30.32,7,2,11,0.00
2013-5-2,78,57,37,34,22,15,69,31,13,30.35,30.15,7,1,10,0.00
2013-5-3,76,59,39,32,23,15,64,29,15,30.21,30.03,8,2,15,0.00
2013-5-4,83,64,42,37,25,13,68,27,13,30.06,29.79,10,2,15,0.00
2013-5-5,88,67,42,31,24,16,50,23,13,29.79,29.59,10,1,15,0.00
2013-5-6,77,63,46,32,25,20,51,27,15,29.85,29.70,8,1,10,0.00
2013-5-7,75,60,45,36,27,21,60,31,16,30.00,29.85,8,1,10,0.00
2013-5-8,68,56,44,39,30,25,71,41,22,30.09,29.97,7,1,10,0.00
2013-5-9,80,60,45,45,32,22,76,41,15,30.12,30.00,7,1,9,0.00
2013-5-10,80,64,49,46,33,24,72,35,15,30.12,30.03,8,1,10,0.00
2013-5-11,83,67,54,41,34,24,59,32,14,30.15,29.94,7,1,9,0.00
2013-5-12,75,63,54,50,34,22,73,37,16,30.06,30.00,8,1,12,0.00
2013-5-13,67,59,50,50,32,20,73,39,20,30.15,30.00,8,2,15,0.00
2013-5-14,68,56,46,37,24,14,67,32,15,30.15,30.03,8,1,10,0.00
2013-5-15,61,52,44,36,27,21,50,39,25,30.06,29.97,6,0,6,0.12
2013-5-16,60,54,51,45,35,24,73,50,26,29.97,29.88,4,0,6,0.04
2013-5-17,62,55,48,46,31,21,76,46,21,30.06,29.94,6,1,8,0.00
2013-5-18,58,54,50,41,33,24,65,46,29,30.21,30.03,4,0,6,0.00
2013-5-19,67,55,46,45,33,18,74,48,17,30.32,30.21,6,1,8,0.12
2013-5-20,73,55,38,37,26,20,73,38,16,30.27,29.88,7,1,10,0.00
2013-5-21,55,47,41,32,27,23,61,46,31,29.97,29.79,7,1,11,0.59
2013-5-22,49,44,38,32,26,21,65,49,37,29.97,29.91,6,1,10,0.59
2013-5-23,58,50,44,39,27,17,70,44,22,29.97,29.94,7,1,10,0.28
2013-5-24,61,52,47,39,29,20,74,44,24,30.03,29.94,6,1,8,0.15
2013-5-25,69,58,48,34,26,20,52,32,17,30.03,29.88,7,1,9,0.04
2013-5-26,63,56,48,48,33,22,75,45,24,30.00,29.91,7,1,12,0.40
2013-5-27,64,55,48,48,36,26,75,53,27,29.94,29.70,7,1,15,0.43
2013-5-28,66,56,49,46,32,20,76,45,20,29.91,29.70,8,1,12,0.04
2013-5-29,62,54,50,46,32,24,75,44,25,30.03,29.65,6,2,8,0.35
2013-5-30,62,54,48,41,28,18,70,40,19,30.18,30.03,7,1,9,0.00
2013-5-31,70,57,46,41,28,19,72,38,17,30.24,30.15,7,1,10,0.00
2013-6-1,76,61,43,43,28,19,72,34,14,30.18,29.94,7,1,10,0.00
2013-6-2,72,61,51,36,29,21,51,32,16,30.00,29.94,9,2,14,0.00
2013-6-3,75,60,45,37,28,20,65,34,16,30.03,29.94,8,2,13,0.00
2013-6-4,80,62,44,41,29,23,69,33,15,30.00,29.91,7,1,10,0.00
2013-6-5,84,67,51,48,33,23,71,33,14,30.00,29.88,7,1,11,0.00
2013-6-6,82,68,53,46,32,24,68,31,14,29.97,29.88,8,1,10,0.00
2013-6-7,83,68,52,43,31,23,65,30,14,30.06,29.97,8,1,10,0.00
2013-6-8,79,64,53,43,29,18,67,30,13,30.09,29.97,8,1,12,0.00
2013-6-9,74,62,48,39,26,19,62,29,16,30.03,29.88,8,2,13,0.00
2013-6-10,71,58,46,30,24,18,51,29,15,29.94,29.82,7,1,11,0.00
2013-6-11,63,57,51,27,22,18,38,27,18,30.09,29.94,6,0,8,0.00
2013-6-12,63,56,48,29,24,20,46,30,21,30.15,30.09,7,1,10,0.00
2013-6-13,61,54,49,39,30,23,70,41,27,30.24,30.12,5,0,8,0.12
2013-6-14,71,58,47,46,32,24,76,43,19,30.24,29.91,9,2,13,0.00
2013-6-15,79,65,46,45,30,21,70,31,15,29.97,29.85,6,1,9,0.00
2013-6-16,76,62,48,43,30,20,71,34,15,30.06,29.94,7,1,8,0.00
2013-6-17,76,62,49,37,28,20,60,30,15,30.06,29.88,8,2,12,0.00
2013-6-18,68,58,52,43,31,19,68,38,17,29.97,29.88,8,1,11,0.08
2013-6-19,64,56,50,46,33,23,75,45,23,30.06,29.91,10,1,13,0.08
2013-6-20,66,56,47,43,32,25,72,42,23,30.06,30.00,7,1,9,0.00
2013-6-21,72,61,51,43,29,19,71,35,16,30.12,30.03,7,1,8,0.00
2013-6-22,80,64,47,37,28,23,62,29,15,30.03,29.79,6,1,10,0.00
2013-6-23,72,63,57,52,39,30,72,43,22,29.82,29.59,6,0,8,0.67
2013-6-24,66,59,55,48,38,25,74,50,24,29.68,29.65,6,0,8,0.04
2013-6-25,68,60,56,54,46,36,76,63,33,29.82,29.65,5,0,8,0.94
2013-6-26,71,63,57,55,42,29,77,52,22,29.97,29.79,4,0,6,0.00
2013-6-27,83,70,58,54,39,30,73,38,16,30.09,29.94,7,1,9,0.00
2013-6-28,91,73,57,54,39,27,74,35,12,30.09,29.94,5,1,9,0.00
2013-6-29,88,72,57,46,35,26,65,30,13,30.06,29.88,5,1,9,0.00
2013-6-30,92,71,57,54,40,30,72,39,12,29.91,29.79,6,1,8,0.00
2013-7-1,90,76,60,54,40,34,71,32,15,29.94,29.85,6,1,8,0.00
2013-7-2,91,75,61,55,41,30,75,34,15,30.00,29.91,8,1,10,0.00
2013-7-3,86,70,57,48,34,21,66,31,13,30.03,29.94,7,1,9,0.00
2013-7-4,78,65,50,41,28,22,64,28,15,30.06,29.91,8,2,13,0.00
2013-7-5,76,63,50,39,28,22,60,28,15,30.00,29.85,10,2,13,0.00
2013-7-6,76,63,50,37,31,24,56,32,15,29.91,29.76,7,2,11,0.00
2013-7-7,82,65,50,46,33,24,71,35,14,29.91,29.79,8,1,10,0.00
2013-7-8,82,65,50,45,32,23,72,32,14,30.00,29.88,7,1,10,0.00
2013-7-9,89,70,51,45,33,24,67,31,13,30.00,29.91,6,1,9,0.00
2013-7-10,85,70,55,48,32,23,70,29,13,29.97,29.82,8,2,10,0.00
2013-7-11,76,62,50,29,25,18,44,26,14,30.00,29.88,8,1,11,0.00
2013-7-12,76,62,46,37,26,18,59,29,13,30.00,29.91,7,1,10,0.00
2013-7-13,81,64,45,36,26,16,56,27,13,30.06,29.91,8,2,13,0.00
2013-7-14,87,67,47,32,27,21,49,25,13,30.00,29.85,9,1,13,0.00
2013-7-15,86,67,48,37,29,23,58,27,13,29.94,29.70,8,1,10,0.00
2013-7-16,83,68,54,41,31,23,57,28,14,29.97,29.70,6,1,9,0.00
2013-7-17,80,66,58,36,30,23,40,28,15,30.09,29.97,7,1,9,0.00
2013-7-18,84,66,50,48,32,20,74,34,13,30.12,29.97,7,1,11,0.00
2013-7-19,83,66,49,37,31,25,56,30,14,30.06,29.91,8,1,10,0.00
2013-7-20,83,65,51,46,33,24,72,34,14,30.00,29.85,9,1,10,0.00
2013-7-21,85,67,50,48,32,23,72,32,13,29.91,29.79,7,1,10,0.00
2013-7-22,86,67,52,48,32,20,71,31,13,29.97,29.85,8,2,13,0.00
2013-7-23,91,69,49,37,30,23,54,27,12,29.97,29.85,7,1,9,0.00
2013-7-24,92,72,53,37,31,21,50,25,12,29.97,29.85,6,1,8,0.00
2013-7-25,90,72,52,32,28,18,43,22,12,30.00,29.91,7,1,10,0.00
2013-7-26,90,72,53,36,28,18,45,22,12,30.06,29.97,8,2,12,0.00
2013-7-27,82,66,48,28,24,16,40,21,13,30.12,29.91,8,2,11,0.00
2013-7-28,79,63,47,32,26,20,49,27,15,30.00,29.88,7,1,10,0.00
2013-7-29,79,62,48,36,29,22,56,31,15,29.97,29.85,7,1,13,0.00
2013-7-30,80,64,48,39,30,24,59,31,15,30.06,29.97,7,1,9,0.00
2013-7-31,77,64,55,41,33,27,55,33,18,30.06,29.97,5,0,8,0.00
2013-8-1,62,59,56,48,39,32,73,48,32,30.06,30.00,4,0,6,0.00
2013-8-2,75,64,56,46,33,22,68,36,15,30.09,29.97,8,1,9,0.00
2013-8-3,82,64,48,45,31,23,69,33,14,30.03,29.88,7,1,10,0.00
2013-8-4,88,69,52,45,33,24,66,30,13,29.94,29.82,6,1,10,0.00
2013-8-5,89,71,54,46,33,23,65,29,13,29.94,29.82,7,1,9,0.00
2013-8-6,90,72,54,46,32,20,65,27,12,29.91,29.79,8,1,9,0.00
2013-8-7,77,64,53,32,27,23,39,26,15,29.97,29.88,6,0,8,0.00
2013-8-8,84,66,52,41,32,24,61,32,14,30.00,29.82,7,1,10,0.00
2013-8-9,81,68,61,55,41,25,72,42,14,29.88,29.79,7,1,9,0.04
2013-8-10,78,66,55,52,37,24,74,41,15,30.00,29.88,6,1,8,0.00
2013-8-11,59,57,56,43,40,37,58,51,45,30.00,29.97,0,0,0,0.00
2013-8-12,73,64,56,39,33,29,49,33,21,30.00,29.94,5,0,8,0.00
2013-8-13,84,66,50,45,33,23,69,35,14,30.03,29.85,6,1,9,0.00
2013-8-14,86,69,53,43,31,23,61,29,13,29.91,29.82,6,1,9,0.00
2013-8-15,82,69,55,43,35,27,54,30,14,29.91,29.85,7,1,9,0.00
2013-8-16,84,71,62,55,40,27,70,36,14,29.97,29.88,5,0,8,0.00
2013-8-17,84,68,53,43,31,23,61,29,14,30.03,29.94,6,1,10,0.00
2013-8-18,60,56,54,37,36,32,51,46,37,30.03,30.00,0,0,0,0.00
2013-8-19,86,71,52,48,31,24,67,28,13,30.03,29.94,7,1,9,0.00
2013-8-20,82,67,53,37,28,18,48,26,13,30.06,29.88,8,1,12,0.00
2013-8-21,83,66,49,34,28,23,49,27,14,29.94,29.76,5,0,8,0.00
2013-8-22,83,70,59,41,34,27,42,29,14,29.85,29.79,6,0,8,0.00
2013-8-23,75,65,58,43,33,26,56,33,18,29.88,29.82,5,1,8,0.00
2013-8-24,74,64,54,37,31,23,49,31,16,29.85,29.79,6,1,8,0.00
2013-8-25,68,60,54,52,40,31,72,48,29,29.88,29.82,3,0,5,0.32
2013-8-26,78,66,56,55,36,20,75,42,15,29.91,29.82,8,1,11,0.00
2013-8-27,85,67,51,46,33,26,69,32,13,29.91,29.73,7,1,10,0.00
2013-8-28,82,70,57,46,34,25,64,30,14,29.85,29.76,8,1,9,0.00
2013-8-29,77,68,61,55,43,32,70,43,21,30.03,29.79,7,0,8,0.04
2013-8-30,81,69,60,57,42,24,75,45,14,30.09,29.94,5,1,8,0.08
2013-8-31,87,68,53,50,36,26,74,37,13,29.97,29.76,6,1,8,0.00
2013-9-1,84,68,54,48,33,22,70,32,14,29.85,29.73,6,1,9,0.00
2013-9-2,77,67,57,39,30,23,44,27,15,29.88,29.79,6,1,8,0.00
2013-9-3,79,67,57,36,29,23,42,26,15,29.94,29.88,6,1,9,0.00
2013-9-4,72,64,55,45,33,29,58,34,21,29.97,29.94,4,0,6,0.07
2013-9-5,67,60,57,54,47,36,76,65,33,30.03,29.91,4,0,6,1.97
2013-9-6,70,62,54,57,44,29,76,57,22,30.09,30.03,4,0,6,0.71
2013-9-7,75,60,48,50,39,29,76,51,21,30.03,29.85,6,1,9,0.00
2013-9-8,81,64,52,54,39,28,76,46,17,30.00,29.88,8,1,11,0.00
2013-9-9,83,66,52,54,38,27,75,41,14,29.94,29.82,7,1,11,0.00
2013-9-10,86,68,53,54,40,32,74,42,16,29.85,29.70,8,1,8,0.00
2013-9-11,88,70,54,55,39,28,75,40,13,29.88,29.73,6,0,8,0.00
2013-9-12,80,64,54,50,40,32,74,45,20,29.94,29.85,5,0,8,0.00
2013-9-13,77,64,57,55,43,34,76,51,22,29.91,29.76,6,1,8,0.00
2013-9-14,73,63,57,55,45,36,77,54,26,29.79,29.65,4,0,7,0.00
2013-9-15,68,62,58,54,41,30,76,49,26,29.85,29.68,4,0,7,0.00
2013-9-16,72,63,57,39,33,26,51,34,19,29.91,29.82,6,0,8,0.00
2013-9-17,64,59,54,39,33,24,58,38,23,29.97,29.76,6,1,9,0.00
2013-9-18,70,58,49,50,32,20,75,44,17,30.03,29.94,5,1,6,0.00
2013-9-19,77,58,44,45,30,21,74,39,15,29.94,29.70,5,0,6,0.00
2013-9-20,74,58,46,48,33,23,74,45,16,29.73,29.62,6,1,10,0.00
2013-9-21,66,58,54,52,39,25,76,52,23,29.76,29.62,4,0,6,0.32
2013-9-22,61,56,52,48,40,25,77,59,26,29.85,29.68,8,0,11,0.19
2013-9-23,63,56,52,52,41,28,77,61,28,29.94,29.85,5,0,7,0.20
2013-9-24,59,54,50,48,41,24,77,64,28,29.94,29.82,4,0,8,0.94
2013-9-25,56,51,48,45,38,24,76,63,29,29.97,29.79,3,0,5,0.20
2013-9-26,64,53,45,48,33,19,77,53,18,30.12,29.97,6,0,9,0.00
2013-9-27,58,50,41,46,36,23,77,62,26,30.12,29.91,5,0,6,0.63
2013-9-28,67,58,52,52,42,28,77,58,24,29.91,29.53,14,1,23,1.38
2013-9-29,58,54,52,48,39,32,75,58,45,29.70,29.44,9,1,12,1.42
2013-9-30,59,52,47,43,33,25,76,49,28,29.97,29.62,6,1,11,0.19
2013-10-1,59,51,44,46,35,22,77,57,25,30.15,29.94,6,0,7,0.32
2013-10-2,56,46,37,39,30,20,77,56,26,30.12,30.03,4,0,6,0.08
2013-10-3,57,48,40,43,31,21,78,56,26,30.32,30.12,6,0,10,0.00
2013-10-4,60,47,34,39,28,21,77,52,25,30.35,30.24,5,0,8,0.00
2013-10-5,66,50,37,45,29,21,77,50,20,30.24,30.06,0,0,0,0.00
2013-10-6,76,55,40,46,28,18,77,44,13,30.09,29.91,7,0,10,0.00
2013-10-7,60,52,45,46,33,22,75,51,24,30.09,29.94,5,0,8,0.12
2013-10-8,53,49,45,43,38,29,77,67,41,30.12,29.91,0,0,0,0.15
2013-10-9,53,45,39,37,32,25,77,63,36,30.00,29.91,0,0,0,0.04
2013-10-10,60,50,40,41,31,22,77,54,24,30.03,29.88,0,0,0,0.00
2013-10-11,57,51,45,39,27,19,68,41,25,30.06,30.03,5,0,8,0.00
2013-10-12,57,49,40,41,30,21,73,50,26,30.09,30.00,4,0,8,0.00
2013-10-13,54,43,34,37,28,23,77,58,32,30.21,30.09,5,0,8,0.00
2013-10-14,62,46,33,39,27,22,77,53,24,30.27,30.18,6,0,7,0.00
2013-10-15,64,47,34,37,24,17,77,47,18,30.21,30.06,5,0,8,0.00
2013-10-16,64,48,36,39,26,19,76,47,18,30.09,30.00,5,0,8,0.00
2013-10-17,61,48,36,39,28,23,76,50,25,30.12,30.03,5,0,8,0.00
2013-10-18,64,48,34,39,28,24,76,51,24,30.09,30.00,5,0,7,0.00
2013-10-19,68,50,37,41,30,25,76,51,22,30.06,30.00,3,0,6,0.00
2013-10-20,63,49,38,41,30,24,76,52,24,30.06,29.97,4,0,6,0.00
2013-10-21,66,50,36,39,30,25,76,50,23,30.00,29.88,4,0,6,0.00
2013-10-22,68,51,37,41,30,23,77,50,20,29.97,29.88,4,0,6,0.00
2013-10-23,67,51,39,41,31,26,76,51,24,29.94,29.85,3,0,5,0.00
2013-10-24,62,49,39,43,32,27,76,55,27,30.03,29.91,4,0,6,0.00
2013-10-25,51,48,42,45,40,32,77,74,66,30.18,30.03,4,0,4,0.00
2013-10-26,51,49,47,41,34,26,76,57,39,30.21,30.09,4,0,6,0.00
2013-10-27,55,49,46,41,34,26,72,57,35,30.09,29.73,5,0,11,0.08
2013-10-28,57,47,34,37,24,10,72,45,17,29.85,29.70,7,0,8,0.00
2013-10-29,56,41,31,27,16,10,72,42,17,30.00,29.85,4,0,7,0.00
2013-10-30,59,44,31,32,21,15,73,44,19,30.12,30.00,4,0,6,0.00
2013-10-31,56,53,48,46,36,27,75,54,37,30.18,30.12,3,0,5,0.08
2013-11-1,53,49,41,46,37,29,78,66,42,30.18,29.88,7,0,10,0.04
2013-11-2,53,49,41,46,31,18,77,52,27,30.06,29.76,8,1,10,0.31
2013-11-3,50,45,40,39,27,18,75,52,28,30.12,30.03,5,0,6,0.08
2013-11-4,50,46,44,39,32,20,75,59,30,30.15,30.09,5,0,7,0.16
2013-11-5,52,50,47,45,42,36,78,76,66,30.18,30.06,2,0,5,0.71
2013-11-6,60,54,51,52,46,43,78,74,54,30.21,30.03,4,0,5,0.08
2013-11-7,57,50,42,48,38,25,79,66,33,30.09,29.88,8,0,12,0.43
2013-11-8,54,47,40,43,34,22,78,64,30,30.15,30.03,3,0,5,0.00
2013-11-9,50,43,35,37,30,24,78,62,37,30.03,29.94,4,0,8,0.00
2013-11-10,56,46,41,43,33,27,78,63,34,30.00,29.94,4,0,6,0.00
2013-11-11,48,46,43,41,39,36,78,77,69,30.06,29.94,4,0,6,0.00
2013-11-12,58,52,45,50,44,37,79,77,74,30.35,30.03,3,0,4,0.12
2013-11-13,55,50,48,48,39,32,79,69,47,30.38,30.21,7,0,9,0.00
2013-11-14,51,48,45,43,34,20,79,62,30,30.21,30.03,4,0,6,0.04
2013-11-15,50,46,44,37,28,19,77,53,30,30.03,29.62,6,1,9,0.00
2013-11-16,50,46,44,41,28,21,75,50,34,29.85,29.56,8,1,10,0.23
2013-11-17,53,48,44,39,26,19,74,44,27,29.97,29.85,7,1,9,0.12
2013-11-18,55,49,43,43,31,23,74,51,29,29.94,29.73,4,0,6,0.28
2013-11-19,57,50,40,46,35,11,79,59,30,29.91,29.70,8,1,11,0.08
2013-11-20,43,36,31,23,16,10,73,46,30,30.24,29.91,5,1,8,0.00
2013-11-21,44,31,25,24,14,4,78,53,20,30.47,30.24,5,0,8,0.00
2013-11-22,44,30,22,17,10,3,67,46,20,30.47,30.27,5,0,9,0.00
2013-11-23,48,32,22,25,12,6,70,47,19,30.30,30.09,5,0,8,0.00
2013-11-24,50,34,25,32,15,10,76,50,21,30.21,30.09,3,0,4,0.00
2013-11-25,50,35,26,31,18,14,76,52,26,30.27,30.21,4,0,5,0.00
2013-11-26,47,36,28,34,20,15,77,55,29,30.21,30.00,4,0,6,0.00
2013-11-27,50,38,31,36,21,15,78,55,27,30.00,29.85,5,0,6,0.00
2013-11-28,51,36,30,36,20,15,78,55,26,30.15,29.94,4,0,5,0.00
2013-11-29,50,39,28,34,21,17,77,53,28,30.30,30.15,4,0,6,0.00
2013-11-30,55,45,38,41,29,21,76,55,27,30.32,30.21,4,0,6,0.00
2013-12-1,56,53,47,43,34,26,73,49,35,30.21,29.94,9,2,15,0.47
2013-12-2,53,43,34,43,26,14,73,53,29,30.00,29.88,8,1,13,0.87
2013-12-3,41,33,25,32,22,12,78,65,36,30.18,29.97,4,0,8,0.00
2013-12-4,36,26,20,15,7,-1,65,47,22,30.24,30.15,6,0,9,0.00
2013-12-5,32,23,15,8,4,1,55,44,28,30.21,30.06,5,0,6,0.00
2013-12-6,27,25,22,12,10,6,56,52,46,30.06,29.82,6,1,8,0.00
2013-12-7,27,19,10,7,-2,-7,53,41,23,30.32,29.91,6,1,9,0.00
2013-12-8,26,15,6,3,-6,-11,47,41,24,30.50,30.32,7,0,9,0.00
2013-12-9,37,20,9,7,-1,-8,49,40,22,30.53,30.41,5,0,7,0.00
2013-12-10,36,27,22,15,10,7,63,48,33,30.44,30.30,4,0,7,0.00
2013-12-11,24,21,19,14,10,0,67,62,57,30.30,30.24,2,0,3,0.00
2013-12-12,42,38,32,31,25,17,76,61,36,30.18,30.06,6,0,8,0.35
2013-12-13,52,40,32,43,30,24,79,68,35,30.35,30.18,5,0,6,0.04
2013-12-14,48,37,30,39,29,24,79,73,41,30.38,30.30,7,0,8,0.00
2013-12-15,52,41,35,41,29,21,79,65,31,30.38,30.32,4,0,6,0.00
2013-12-16,41,38,33,36,31,27,79,78,76,30.38,30.24,3,0,6,0.00
2013-12-17,40,35,32,34,29,26,79,79,75,30.24,30.09,6,0,7,0.00
2013-12-18,41,37,33,34,30,21,79,76,52,30.12,29.97,7,0,11,0.04
2013-12-19,34,32,30,27,21,16,79,65,50,30.24,30.06,4,0,8,0.00
2013-12-20,40,36,31,34,26,20,79,69,48,30.15,29.91,6,0,8,0.40
2013-12-21,51,45,40,46,39,34,79,78,76,30.21,29.94,0,0,0,0.08
2013-12-22,53,47,42,46,40,36,79,77,65,30.30,30.21,0,0,0,0.11
2013-12-23,50,45,39,45,40,34,80,79,78,30.44,30.27,3,0,4,0.16
2013-12-24,40,36,32,34,30,26,79,79,78,30.50,30.38,5,0,6,0.00
2013-12-25,37,35,33,32,29,27,80,78,76,30.38,30.30,4,0,6,0.00
2013-12-26,36,34,32,30,28,26,80,79,78,30.32,30.15,4,0,5,0.00
2013-12-27,39,35,32,32,28,25,78,77,76,30.30,30.12,8,0,10,0.00
2013-12-28,37,36,34,30,29,28,78,77,77,30.41,30.30,4,0,5,0.00
2013-12-29,39,36,33,30,27,21,79,71,49,30.38,30.21,4,0,6,0.00
2013-12-30,45,39,35,34,29,23,80,70,44,30.24,30.12,3,0,5,0.00
2013-12-31,52,41,34,39,28,17,80,63,26,30.30,30.18,4,0,6,0.00
2014-1-1,39,34,29,32,28,23,79,78,74,30.30,30.21,4,0,6,0.00
2014-1-2,51,40,32,36,28,21,79,65,33,30.21,30.03,4,0,7,0.00